Location: Moena
(46.3667°N, 11.6500°E)
Time: 18:39:16
(UTC+00:00)

Gbstr 26 Del rocket - Pass Details

Date: 03 March 2021
Orbit: 492 x 1264 km, 51.8° (Epoch: 14 April)

Event Time Altitude Azimuth Distance (km) Brightness Sun altitude
Rises 19:55:02 0° 292° (WNW) 2,961 7.7 -29.9°
Reaches altitude 10° 19:57:12 10° 297° (WNW) 2,146 6.7 -30.3°
Enters shadow 20:01:07 49° 335° (NNW) 998 4.2 -30.9°
